Regional Weather Roundup
Issued by NWS

Home | Current Version | Previous Version | Text Only | Print | Product List | Glossary On
Versions: 1 2 3 4 5 6 7 8 9 10 11 12 13 14 15 16 17 18 19 20 21 22 23 24 25 26 27 28 29 30 31 32 33 34 35 36 37 38 39 40 41 42 43 44 45 46 47 48 49 50
000
ASUS45 KABQ 311010
RWRNM
WEATHER ROUNDUP FOR NEW MEXICO
NATIONAL WEATHER SERVICE ALBUQUERQUE NM
400 AM MDT SUN AUG 31 2014

NOTE: "FAIR" MEANS FEW OR NO CLOUDS BELOW 12,000 FEET AGL WITH NO
       SIGNIFICANT WEATHER OR OBSTRUCTIONS TO VISION.

      THIS PRODUCT IS RELEASED AS TWO VERSIONS.  ONE VERSION NEAR
      THE TOP OF THE HOUR CONTAINING PRELIMINARY DATA FROM ALBUQUERQUE
      AND OTHER STATIONS.  A FINAL VERSION WITH ADDITIONAL DATA IS
      ISSUED ABOUT 10 MINUTES AFTER THE HOUR.

NMZ501-503-504-510>518-311100-
NORTHWEST PLATEAU/NORTHCENTRAL MOUNTAINS

CITY           SKY/WX    TMP DP  RH WIND       PRES   REMARKS
FARMINGTON     CLEAR     56  39  53 NE6       30.04R
LOS ALAMOS     CLEAR     64  38  38 S8        30.17F
SANTA FE       PTCLDY    59  40  49 CALM      30.12R
ANGEL FIRE     FAIR      42  35  78 CALM      30.26S

$$
NMZ402-403-502-505>509-311100-
WESTCENTRAL MOUNTAINS/SOUTHWEST MOUNTAINS

CITY           SKY/WX    TMP DP  RH WIND       PRES   REMARKS
GALLUP         FAIR      53  28  38 CALM      30.16S
SILVER CITY    FAIR      63  39  42 N5        30.14S

$$
NMZ407-409-411-412-311100-
SOUTHERN DESERTS

CITY           SKY/WX    TMP DP  RH WIND       PRES   REMARKS
LORDSBURG      FAIR      64  43  45 CALM      30.04R
DEMING         FAIR      69  42  37 NW3       30.03S
LAS CRUCES     FAIR      72  40  31 W6        30.05R
HOLLOMAN AFB   CLEAR     73  42  32 S7        30.00R
ALAMOGORDO     CLEAR     66  43  42 S7        30.02S
T OR C         FAIR      69  44  40 W6        30.05F

$$
NMZ519>523-311100-
CENTRAL VALLEYS/CENTRAL HIGHLANDS

CITY           SKY/WX    TMP DP  RH WIND       PRES   REMARKS
ALBUQUERQUE    PTCLDY    68  42  38 SE9       30.08R
DOUBLE EAGLE   CLEAR     64  37  38 W7        30.11R
MORIARTY ARPT  FAIR      50  43  75 CALM      30.13S
CLINES CORNERS CLEAR     62  39  42 SW16      30.16S
BELEN          FAIR      67  42  40 S8        30.07S
SOCORRO        FAIR      65  46  50 S6        30.05S

$$
NMZ524>526-539-540-311100-
SOUTHCENTRAL MOUNTAINS

CITY           SKY/WX    TMP DP  RH WIND       PRES   REMARKS
RUIDOSO        CLEAR     64  37  36 W5        30.22S

$$
NMZ527>531-311100-
NORTHEAST HIGHLANDS/NORTHEAST PLAINS

CITY           SKY/WX    TMP DP  RH WIND       PRES   REMARKS
LAS VEGAS      CLEAR     60  39  45 S15       30.13F
RATON          CLEAR     55  39  54 W7        30.07S
CLAYTON        CLEAR     68  44  42 SW13      29.99

$$
NMZ532>537-311100-
EASTCENTRAL PLAINS

CITY           SKY/WX    TMP DP  RH WIND       PRES   REMARKS
TUCUMCARI      CLEAR     74  49  41 S12       29.96S
CANNON AFB     CLEAR     69  55  60 S9        30.03F
CLOVIS AIRPORT   N/A     64  52  63 S9        30.05S

$$
NMZ028-029-538-311100-
SOUTHEAST PLAINS

CITY           SKY/WX    TMP DP  RH WIND       PRES   REMARKS
ROSWELL        CLEAR     67  49  52 S6        29.99S
CARLSBAD       CLEAR     74  55  51 S8        29.97S
HOBBS          CLEAR     73  59  60 S10       30.02S


$$



USA.gov is the U.S. government's official web portal to all federal, state and local government web resources and services.